FW9179 Weather Reports


time (UTC)temp
F
wind
direction
speed
knots
gust
knots
rain 1hr
in
rain 24hr
in
rain mn
in
humidity
%
barometer
mb
20260503010112 57 28 2.6 4.3 0.00 0.00 0.00 63 904.7
20260503004605 57 28 2.6 4.3 0.00 0.00 0.00 64 904.8
20260503003109 57 5 0.0 0.9 0.00 0.00 0.00 66 904.8
20260503001605 58 14 1.7 2.6 0.00 0.00 0.00 64 904.8
20260503000104 57 36 0.0 0.0 0.00 0.00 0.00 64 904.9
20260502234605 57 353 2.6 5.2 0.00 0.00 0.00 65 904.9
20260502233104 58 335 3.5 7.8 0.00 0.00 0.00 65 903.9
20260502231604 57 332 3.5 5.2 0.00 0.00 0.00 66 904.4
20260502230105 58 291 0.9 2.6 0.00 0.00 0.00 65 905.2
20260502224605 60 305 1.7 3.5 0.00 0.00 0.00 64 905.0
20260502223106 60 136 1.7 2.6 0.00 0.00 0.00 62 904.2
20260502221605 60 208 3.5 6.1 0.00 0.00 0.00 65 904.4
20260502214608 61 177 3.5 7.8 0.00 0.00 0.00 62 904.4
20260502213104 59 323 1.7 3.5 0.00 0.00 0.00 67 904.4
20260502211606 60 231 5.2 7.8 0.00 0.00 0.00 62 904.3
20260502210104 58 104 4.3 7.0 0.00 0.00 0.00 60 904.1
20260502204608 59 54 2.6 7.0 0.00 0.00 0.00 62 904.4
20260502203104 58 138 7.0 13.0 0.00 0.00 0.00 63 903.9
20260502200106 57 91 1.7 4.3 0.00 0.00 0.00 61 904.2
20260502194604 57 138 2.6 5.2 0.00 0.00 0.00 61 903.9
20260502193104 57 125 4.3 6.1 0.00 0.00 0.00 61 904.1
20260502191609 56 101 7.8 9.6 0.00 0.00 0.00 61 904.5
20260502190109 57 149 2.6 7.8 0.00 0.00 0.00 61 903.8
20260502184604 56 100 6.1 8.7 0.00 0.00 0.00 61 903.6
20260502183104 55 106 7.0 9.6 0.00 0.00 0.00 61 903.6
20260502181606 56 100 7.0 9.6 0.00 0.00 0.00 61 903.8
20260502180104 54 104 6.1 7.8 0.00 0.00 0.00 63 903.6
20260502170105 53 121 5.2 7.8 0.00 0.00 0.00 63 903.7
20260502163104 52 108 6.1 10.4 0.00 0.00 0.00 63 903.6
20260502161604 52 124 10.4 15.6 0.00 0.00 0.00 63 903.6
20260502160104 51 116 13.0 20.0 0.00 0.00 0.00 63 903.7
20260502151604 49 111 9.6 18.2 0.00 0.00 0.00 63 903.9
20260502150106 49 108 13.0 20.9 0.00 0.00 0.00 63 903.9
20260502140105 49 110 13.9 17.4 0.00 0.00 0.00 62 904.2
20260502130108 49 114 10.4 16.5 0.00 0.00 0.00 62 904.4
20260502123104 48 104 13.9 20.9 0.00 0.00 0.00 62 904.4
20260502121604 48 104 13.9 19.1 0.00 0.00 0.00 62 904.3
20260502120110 48 109 13.0 17.4 0.00 0.00 0.00 62 904.3
20260502114605 49 103 14.8 22.6 0.00 0.00 0.00 62 904.4
20260502113106 49 106 13.9 20.0 0.00 0.00 0.00 62 904.5
20260502111609 48 105 14.8 21.7 0.00 0.00 0.00 63 904.4
20260502110104 48 105 12.2 17.4 0.00 0.00 0.00 64 904.3
20260502104604 48 103 13.0 23.5 0.00 0.00 0.00 63 904.4
20260502103105 48 99 11.3 15.6 0.00 0.00 0.00 64 904.4
20260502100105 48 102 13.9 22.6 0.00 0.00 0.00 64 904.4
20260502090107 49 102 10.4 15.6 0.00 0.00 0.00 64 904.4
20260502080105 49 99 9.6 12.2 0.00 0.00 0.00 67 904.4
20260502064611 49 98 9.6 15.6 0.00 0.00 0.00 66 904.5
20260502063107 49 101 9.6 13.0 0.00 0.00 0.00 67 904.4
20260502060113 49 94 7.8 12.2 0.00 0.00 0.00 66 904.5
20260502054604 49 87 7.0 9.6 0.00 0.00 0.00 67 904.5
20260502053104 50 104 7.8 12.2 0.00 0.00 0.00 67 904.5
20260502050107 49 102 10.4 15.6 0.00 0.00 0.00 67 904.7
20260502044611 50 104 8.7 10.4 0.00 0.00 0.00 67 904.7
20260502043105 50 103 7.8 11.3 0.00 0.00 0.00 67 904.7
20260502041609 50 89 6.1 8.7 0.00 0.00 0.00 66 904.7
20260502040108 50 90 6.1 8.7 0.00 0.00 0.00 66 904.7
20260502034604 50 96 8.7 10.4 0.00 0.00 0.00 66 904.8
20260502033107 50 92 8.7 10.4 0.00 0.00 0.00 65 904.8
20260502030111 50 85 4.3 7.0 0.00 0.00 0.00 66 904.8
20260502024604 49 107 6.1 7.8 0.00 0.00 0.00 66 904.5
20260502023105 49 39 5.2 6.1 0.00 0.00 0.00 68 904.8
20260502021606 50 16 3.5 4.3 0.00 0.00 0.00 70 904.9
20260502014606 52 344 2.6 5.2 0.00 0.00 0.00 67 904.7
20260502013105 52 337 4.3 6.1 0.00 0.00 0.00 66 904.9
20260502011606 53 334 3.5 6.1 0.00 0.00 0.00 66 905.0